H1 CPF 1 NER 2019 2 24 9 5551 glonass119 H2 1000701 9119 36400 2019 2 24 0 0 0 2019 2 27 23 45 0 900 1 1 0 0 0 H9 10 0 58538 0.00000 0 -11002221.917 -21970361.822 -6588353.605 10 0 58538 900.00000 0 -11411024.333 -22477479.808 -3416358.265 10 0 58538 1800.00000 0 -11686214.696 -22595517.641 -177447.694 10 0 58538 2700.00000 0 -11773724.332 -22343818.104 3064940.328 10 0 58538 3600.00000 0 -11625757.437 -21754154.167 6247319.776 10 0 58538 4500.00000 0 -11203056.241 -20869259.252 9307431.064 10 0 58538 5400.00000 0 -10476806.359 -19740908.681 12185486.813 10 0 58538 6300.00000 0 -9430099.360 -18427636.896 14825361.442 10 0 58538 7200.00000 0 -8058889.729 -16992190.888 17175699.027 10 0 58538 8100.00000 0 -6372406.055 -15498830.966 19190916.593 10 0 58538 9000.00000 0 -4393000.253 -14010595.659 20832083.044 10 0 58538 9900.00000 0 -2155443.319 -12586647.846 22067657.339 10 0 58538 10800.00000 0 294300.446 -11279814.318 22874073.363 10 0 58538 11700.00000 0 2900766.911 -10134421.299 23236162.595 10 0 58538 12600.00000 0 5601080.331 -9184514.685 23147409.343 10 0 58538 13500.00000 0 8327347.796 -8452536.376 22610036.877 10 0 58538 14400.00000 0 11009259.737 -7948508.254 21634925.957 10 0 58538 15300.00000 0 13576788.797 -7669753.748 20241370.231 10 0 58538 16200.00000 0 15962876.584 -7601164.542 18456675.672 10 0 58538 17100.00000 0 18105999.261 -7715997.613 16315613.485 10 0 58538 18000.00000 0 19952508.598 -7977166.521 13859738.151 10 0 58538 18900.00000 0 21458654.906 -8338971.043 11136584.033 10 0 58538 19800.00000 0 22592211.495 -8749192.052 8198755.569 10 0 58538 20700.00000 0 23333636.469 -9151464.191 5102927.640 10 0 58538 21600.00000 0 23676726.375 -9487828.072 1908773.738 10 0 58538 22500.00000 0 23628736.511 -9701356.783 -1322159.384 10 0 58538 23400.00000 0 23209963.919 -9738748.595 -4527611.021 10 0 58538 24300.00000 0 22452810.534 -9552779.123 -7645779.822 10 0 58538 25200.00000 0 21400364.664 -9104511.628 -10616490.787 10 0 58538 26100.00000 0 20104558.320 -8365173.659 -13382335.487 10 0 58538 27000.00000 0 18623975.053 -7317621.268 -15889765.409 10 0 58538 27900.00000 0 17021397.243 -5957328.265 -18090118.776 10 0 58538 28800.00000 0 15361192.744 -4292856.861 -19940561.883 10 0 58538 29700.00000 0 13706647.773 -2345786.712 -21404927.147 10 0 58538 30600.00000 0 12117355.776 -150101.214 -22454431.400 10 0 58538 31500.00000 0 10646770.565 2248947.843 -23068259.504 10 0 58538 32400.00000 0 9340026.020 4796454.646 -23234000.431 10 0 58538 33300.00000 0 8232114.537 7429889.868 -22947925.150 10 0 58538 34200.00000 0 7346502.325 10081466.352 -22215098.227 10 0 58538 35100.00000 0 6694242.030 12680744.161 -21049318.037 10 0 58538 36000.00000 0 6273622.702 15157367.867 -19472883.637 10 0 58538 36900.00000 0 6070374.683 17443822.002 -17516189.926 10 0 58538 37800.00000 0 6058423.168 19478088.506 -15217156.484 10 0 58538 38700.00000 0 6201160.410 21206092.922 -12620499.288 10 0 58538 39600.00000 0 6453183.575 22583833.927 -9776858.552 10 0 58538 40500.00000 0 6762424.279 23579103.774 -6741799.678 10 0 58538 41400.00000 0 7072577.998 24172724.371 -3574707.716 10 0 58538 42300.00000 0 7325727.671 24359244.614 -337599.012 10 0 58538 43200.00000 0 7465046.657 24147068.278 2906124.065 10 0 58538 44100.00000 0 7437462.404 23558006.964 6092947.720 10 0 58538 45000.00000 0 7196163.844 22626278.101 9160522.103 10 0 58538 45900.00000 0 6702842.619 21396992.705 12048909.181 10 0 58538 46800.00000 0 5929570.410 19924199.949 14701775.740 10 0 58538 47700.00000 0 4860231.259 18268574.809 17067505.898 10 0 58538 48600.00000 0 3491447.833 16494850.056 19100210.103 10 0 58538 49500.00000 0 1832963.167 14669104.056 20760610.668 10 0 58538 50400.00000 0 -92536.531 12856020.915 22016787.264 10 0 58538 51300.00000 0 -2250148.371 11116239.312 22844769.615 10 0 58538 52200.00000 0 -4593995.623 9503901.071 23228968.312 10 0 58538 53100.00000 0 -7068932.457 8064500.738 23162438.344 10 0 58538 54000.00000 0 -9612637.542 6833123.379 22646973.506 10 0 58538 54900.00000 0 -12158008.135 5833140.577 21693033.039 10 0 58538 55800.00000 0 -14635754.754 5075414.918 20319504.850 10 0 58538 56700.00000 0 -16977089.457 4558041.702 18553312.363 10 0 58538 57600.00000 0 -19116397.860 4266634.522 16428874.345 10 0 58538 58500.00000 0 -20993786.435 4175139.229 13987429.262 10 0 58538 59400.00000 0 -22557402.485 4247139.581 11276237.524 10 0 58538 60300.00000 0 -23765433.798 4437598.345 8347676.569 10 0 58538 61200.00000 0 -24587708.103 4694960.493 5258245.274 10 0 58538 62100.00000 0 -25006828.681 4963530.847 2067495.292 10 0 58538 63000.00000 0 -25018801.096 5186027.806 -1163092.079 10 0 58538 63900.00000 0 -24633126.214 5306207.893 -4371263.979 10 0 58538 64800.00000 0 -23872356.019 5271452.954 -7495169.068 10 0 58538 65700.00000 0 -22771130.077 5035213.276 -10474525.313 10 0 58538 66600.00000 0 -21374731.341 4559205.419 -13251762.008 10 0 58538 67500.00000 0 -19737219.292 3815273.037 -15773115.894 10 0 58538 68400.00000 0 -17919215.608 2786832.161 -17989661.709 10 0 58538 69300.00000 0 -15985431.908 1469838.802 -19858258.140 10 0 58538 70200.00000 0 -14002040.000 -126764.360 -21342391.347 10 0 58538 71100.00000 0 -12033992.048 -1981144.545 -22412899.501 10 0 58538 72000.00000 0 -10142400.932 -4059218.956 -23048563.332 10 0 58538 72900.00000 0 -8382089.435 -6315816.339 -23236549.745 10 0 58538 73800.00000 0 -6799410.753 -8696316.239 -22972697.700 10 0 58538 74700.00000 0 -5430432.670 -11138701.620 -22261638.160 10 0 58538 75600.00000 0 -4299563.185 -13575942.616 -21116742.821 10 0 58538 76500.00000 0 -3418677.612 -15938614.126 -19559899.543 10 0 58538 77400.00000 0 -2786786.440 -18157638.754 -17621115.904 10 0 58538 78300.00000 0 -2390260.352 -20167040.005 -15337956.082 10 0 58538 79200.00000 0 -2203604.862 -21906588.831 -12754820.091 10 0 58538 80100.00000 0 -2190753.011 -23324229.904 -9922078.396 10 0 58538 81000.00000 0 -2306821.514 -24378182.605 -6895078.709 10 0 58538 81900.00000 0 -2500254.877 -25038625.097 -3733045.214 10 0 58538 82800.00000 0 -2715264.371 -25288887.634 -497893.718 10 0 58538 83700.00000 0 -2894455.183 -25126102.666 2747011.458 10 0 58538 84600.00000 0 -2981526.407 -24561283.309 5938131.313 10 0 58538 85500.00000 0 -2923925.227 -23618827.083 9013028.223 10 0 58539 0.00000 0 -2675338.868 -22335467.426 11911615.820 10 0 58539 900.00000 0 -2197914.959 -20758719.632 14577355.591 10 0 58539 1800.00000 0 -1464115.348 -18944890.517 16958373.690 10 0 58539 2700.00000 0 -458121.503 -16956738.830 19008475.756 10 0 58539 3600.00000 0 823265.392 -14860888.637 20688038.995 10 0 58539 4500.00000 0 2370268.080 -12725107.163 21964764.932 10 0 58539 5400.00000 0 4160332.920 -10615563.151 22814279.909 10 0 58539 6300.00000 0 6158875.051 -8594181.098 23220574.052 10 0 58539 7200.00000 0 8320535.133 -6716201.335 23176273.117 10 0 58539 8100.00000 0 10590892.860 -5028045.706 22682741.208 10 0 58539 9000.00000 0 12908564.085 -3565574.661 21750015.558 10 0 58539 9900.00000 0 15207593.183 -2352804.445 20396577.615 10 0 58539 10800.00000 0 17420041.265 -1401133.337 18648967.321 10 0 58539 11700.00000 0 19478663.637 -709104.692 16541249.854 10 0 58539 12600.00000 0 21319567.133 -262712.596 14114346.299 10 0 58539 13500.00000 0 22884739.477 -36233.959 11415241.496 10 0 58539 14400.00000 0 24124348.600 6450.149 8496084.000 10 0 58539 15300.00000 0 24998719.282 -89899.538 5413194.513 10 0 58539 16200.00000 0 25479907.816 -273993.521 2226000.403 10 0 58539 17100.00000 0 25552811.443 -490397.790 -1004085.178 10 0 58539 18000.00000 0 25215767.853 -682090.769 -4214820.072 10 0 58539 18900.00000 0 24480620.471 -793087.569 -7344305.895 10 0 58539 19800.00000 0 23372246.353 -771023.339 -10332156.498 10 0 58539 20700.00000 0 21927565.121 -569588.967 -13120641.701 10 0 58539 21600.00000 0 20194068.074 -150717.940 -15655786.114 10 0 58539 22500.00000 0 18227926.035 513567.213 -17888403.371 10 0 58539 23400.00000 0 16091751.772 1439727.197 -19775046.693 10 0 58539 24300.00000 0 13852107.116 2631758.758 -21278857.878 10 0 58539 25200.00000 0 11576855.831 4080770.722 -22370298.084 10 0 58539 26100.00000 0 9332470.360 5765104.878 -23027745.311 10 0 58539 27000.00000 0 7181403.245 7651001.091 -23237945.515 10 0 58539 27900.00000 0 5179632.260 9693783.535 -22996306.458 10 0 58539 28800.00000 0 3374482.222 11839522.858 -22307025.953 10 0 58539 29700.00000 0 1802815.742 14027108.635 -21183049.082 10 0 58539 30600.00000 0 489670.538 16190648.393 -19645852.135 10 0 58539 31500.00000 0 -552597.095 18262094.352 -17725054.546 10 0 58539 32400.00000 0 -1324624.367 20173988.236 -15457863.814 10 0 58539 33300.00000 0 -1839794.336 21862208.043 -12888362.245 10 0 58539 34200.00000 0 -2123437.465 23268599.202 -10066648.370 10 0 58539 35100.00000 0 -2211515.625 24343376.556 -7047849.614 10 0 58539 36000.00000 0 -2148844.792 25047192.650 -3891026.331 10 0 58539 36900.00000 0 -1986933.449 25352781.804 -657990.549 10 0 58539 37800.00000 0 -1781531.183 25246107.836 2587934.890 10 0 58539 38700.00000 0 -1589995.082 24726965.131 5783189.313 10 0 58539 39600.00000 0 -1468589.732 23809006.976 8865250.829 10 0 58539 40500.00000 0 -1469839.448 22519200.585 11773888.239 10 0 58539 41400.00000 0 -1640048.672 20896733.574 14452360.733 10 0 58539 42300.00000 0 -2017098.416 18991420.816 16848539.515 10 0 58539 43200.00000 0 -2628613.768 16861682.058 18915928.079 10 0 58539 44100.00000 0 -3490580.463 14572178.802 20614560.819 10 0 58539 45000.00000 0 -4606468.218 12191212.836 21911763.047 10 0 58539 45900.00000 0 -5966896.160 9787997.737 22782759.271 10 0 58539 46800.00000 0 -7549852.045 7429918.753 23211120.280 10 0 58539 47700.00000 0 -9321453.401 5179895.474 23189043.272 10 0 58539 48600.00000 0 -11237216.072 3093955.913 22717462.849 10 0 58539 49500.00000 0 -13243774.963 1219120.343 21805993.918 10 0 58539 50400.00000 0 -15280983.568 -408320.541 20472710.614 10 0 58539 51300.00000 0 -17284304.159 -1764065.865 18743768.018 10 0 58539 52200.00000 0 -19187389.433 -2836555.348 16652875.837 10 0 58539 53100.00000 0 -20924749.354 -3627183.757 14240635.426 10 0 58539 54000.00000 0 -22434394.295 -4149974.045 11553753.329 10 0 58539 54900.00000 0 -23660347.084 -4430725.947 8644146.159 10 0 58539 55800.00000 0 -24554922.172 -4505677.594 5567953.185 10 0 58539 56700.00000 0 -25080679.854 -4419737.143 2384474.090 10 0 58539 57600.00000 0 -25211976.513 -4224358.297 -844949.565 10 0 58539 58500.00000 0 -24936048.002 -3975147.768 -4058089.777 10 0 58539 59400.00000 0 -24253581.927 -3729303.348 -7193004.481 10 0 58539 60300.00000 0 -23178754.839 -3542988.158 -10189206.693 10 0 58539 61200.00000 0 -21738731.725 -3468749.351 -12988809.872 10 0 58539 62100.00000 0 -19972646.663 -3553088.099 -15537629.396 10 0 58539 63000.00000 0 -17930104.361 -3834282.060 -17786220.404 10 0 58539 63900.00000 0 -15669261.835 -4340551.743 -19690832.865 10 0 58539 64800.00000 0 -13254566.695 -5088648.903 -21214265.962 10 0 58539 65700.00000 0 -10754242.873 -6082928.354 -22326605.046 10 0 58539 66600.00000 0 -8237625.702 -7314945.331 -23005826.000 10 0 58539 67500.00000 0 -5772455.083 -8763599.244 -23238253.865 10 0 58539 68400.00000 0 -3422238.201 -10395822.265 -23018864.674 10 0 58539 69300.00000 0 -1243791.454 -12167788.345 -22351422.046 10 0 58539 70200.00000 0 714935.184 -14026596.191 -21248442.963 10 0 58539 71100.00000 0 2416659.041 -15912359.071 -19730990.285 10 0 58539 72000.00000 0 3836113.325 -17760616.118 -17828293.130 10 0 58539 72900.00000 0 4960884.558 -19504964.962 -15577199.879 10 0 58539 73800.00000 0 5791701.426 -21079804.796 -13021472.497 10 0 58539 74700.00000 0 6342161.044 -22423072.858 -10210934.786 10 0 58539 75600.00000 0 6637903.198 -23478856.465 -7200490.992 10 0 58539 76500.00000 0 6715267.495 -24199767.185 -4049034.703 10 0 58539 77400.00000 0 6619491.387 -24548973.414 -818271.218 10 0 58539 78300.00000 0 6402527.771 -24501802.240 2428520.998 10 0 58539 79200.00000 0 6120577.940 -24046840.339 5627762.397 10 0 58539 80100.00000 0 5831448.423 -23186485.837 8716849.492 10 0 58539 81000.00000 0 5591848.004 -21936927.511 11635408.678 10 0 58539 81900.00000 0 5454743.438 -20327553.129 14326499.192 10 0 58539 82800.00000 0 5466889.198 -18399813.941 16737739.230 10 0 58539 83700.00000 0 5666638.167 -16205595.996 18822331.773 10 0 58539 84600.00000 0 6082126.940 -13805169.966 20539969.698 10 0 58539 85500.00000 0 6729912.233 -11264808.762 21857603.008 10 0 58540 0.00000 0 7614114.566 -8654175.413 22750054.879 10 0 58540 900.00000 0 8726103.469 -6043592.084 23200476.916 10 0 58540 1800.00000 0 10044733.610 -3501304.873 23200637.539 10 0 58540 2700.00000 0 11537120.755 -1090858.070 22751041.315 10 0 58540 3600.00000 0 13159920.693 1131315.690 21860880.051 10 0 58540 4500.00000 0 14861056.525 3117991.372 20547819.582 10 0 58540 5400.00000 0 16581820.392 4832850.897 18837628.968 10 0 58540 6300.00000 0 18259261.666 6251719.631 16763661.136 10 0 58540 7200.00000 0 19828762.501 7363293.068 14366196.252 10 0 58540 8100.00000 0 21226694.829 8169327.785 11691660.940 10 0 58540 9000.00000 0 22393050.179 8684292.325 8791738.084 10 0 58540 9900.00000 0 23273935.202 8934495.214 5722383.533 10 0 58540 10800.00000 0 23823831.539 8956728.236 2542767.111 10 0 58540 11700.00000 0 24007528.208 8796482.172 -685843.566 10 0 58540 12600.00000 0 23801647.837 8505809.252 -3901237.113 10 0 58540 13500.00000 0 23195704.232 8140920.563 -7041430.342 10 0 58540 14400.00000 0 22192647.385 7759617.340 -10045837.954 10 0 58540 15300.00000 0 20808872.390 7418661.860 -12856419.493 10 0 58540 16200.00000 0 19073690.136 7171196.392 -15418783.408 10 0 58540 17100.00000 0 17028279.169 7064317.127 -17683228.456 10 0 58540 18000.00000 0 14724159.122 7136904.259 -19605703.301 10 0 58540 18900.00000 0 12221245.650 7417799.603 -21148666.267 10 0 58540 19800.00000 0 9585564.058 7924409.595 -22281828.496 10 0 58540 20700.00000 0 6886713.432 8661794.669 -22982765.192 10 0 58540 21600.00000 0 4195183.899 9622286.534 -23237381.719 10 0 58540 22500.00000 0 1579636.645 10785653.374 -23040223.388 10 0 58540 23400.00000 0 -895741.033 12119810.265 -22394620.341 10 0 58540 24300.00000 0 -3173695.428 13582049.233 -21312661.815 10 0 58540 25200.00000 0 -5206077.324 15120740.973 -19814997.188 10 0 58540 26100.00000 0 -6955631.561 16677439.563 -17930464.755 10 0 58540 27000.00000 0 -8397328.154 18189303.351 -15695552.833 10 0 58540 27900.00000 0 -9519176.802 19591730.511 -13153701.647 10 0 58540 28800.00000 0 -10322488.353 20821097.184 -10354458.461 10 0 58540 29700.00000 0 -10821570.782 21817480.602 -7352502.157 10 0 58540 30600.00000 0 -11042871.920 22527249.135 -4206557.039 10 0 58540 31500.00000 0 -11023605.701 22905406.264 -978218.897 10 0 58540 32400.00000 0 -10809921.784 22917585.787 2269281.183 10 0 58540 33300.00000 0 -10454698.926 22541610.733 5472347.929 10 0 58540 34200.00000 0 -10015059.189 21768547.722 8568299.485 10 0 58540 35100.00000 0 -9549712.501 20603211.039 11496623.091 10 0 58540 36000.00000 0 -9116248.174 19064095.143 14200181.229 10 0 58540 36900.00000 0 -8768491.815 17182739.746 16626342.159 10 0 58540 37800.00000 0 -8554042.294 15002556.416 18728011.245 10 0 58540 38700.00000 0 -8512094.632 12577168.890 20464542.498 10 0 58540 39600.00000 0 -8671641.166 9968339.875 21802512.974 10 0 58540 40500.00000 0 -9050126.013 7243573.998 22716346.556 10 0 58540 41400.00000 0 -9652607.588 4473499.224 23188777.252 10 0 58540 42300.00000 0 -10471461.658 1729137.299 23211145.903 10 0 58540 43200.00000 0 -11486634.289 -920823.169 22783527.777 10 0 58540 44100.00000 0 -12666430.949 -3412638.833 21914691.774 10 0 58540 45000.00000 0 -13968805.918 -5689902.767 20621895.099 10 0 58540 45900.00000 0 -15343095.981 -7705618.874 18930519.916 10 0 58540 46800.00000 0 -16732124.738 -9423877.510 16873560.975 10 0 58540 47700.00000 0 -18074589.387 -10821067.142 14490975.370 10 0 58540 48600.00000 0 -19307631.039 -11886576.073 11828907.481 10 0 58540 49500.00000 0 -20369482.847 -12622958.981 8938803.776 10 0 58540 50400.00000 0 -21202087.505 -13045564.484 5876433.694 10 0 58540 51300.00000 0 -21753577.295 -13181641.475 2700833.998 10 0 58540 52200.00000 0 -21980515.554 -13068962.695 -526805.007 10 0 58540 53100.00000 0 -21849807.993 -12754023.104 -3744292.018 10 0 58540 54000.00000 0 -21340205.519 -12289887.588 -6889606.221 10 0 58540 54900.00000 0 -20443336.343 -11733776.564 -9902067.504 10 0 58540 55800.00000 0 -19164223.859 -11144488.618 -12723484.932 10 0 58540 56700.00000 0 -17521267.252 -10579766.195 -15299263.324 10 0 58540 57600.00000 0 -15545683.151 -10093712.947 -17579448.125 10 0 58540 58500.00000 0 -13280428.424 -9734369.825 -19519689.419 10 0 58540 59400.00000 0 -10778645.214 -9541551.111 -21082106.975 10 0 58540 60300.00000 0 -8101688.868 -9545031.720 -22236039.472 10 0 58540 61200.00000 0 -5316817.017 -9763163.323 -22958662.597 10 0 58540 62100.00000 0 -2494632.416 -10201979.914 -23235462.567 10 0 58540 63000.00000 0 293616.848 -10854833.626 -23060553.899 10 0 58540 63900.00000 0 2978769.098 -11702579.941 -22436832.625 10 0 58540 64800.00000 0 5496399.785 -12714308.486 -21375959.106 10 0 58540 65700.00000 0 7789280.324 -13848592.464 -19898167.679 10 0 58540 66600.00000 0 9809540.983 -15055207.263 -18031903.890 10 0 58540 67500.00000 0 11520445.438 -16277248.051 -15813293.721 10 0 58540 68400.00000 0 12897700.225 -17453558.061 -13285453.089 10 0 58540 69300.00000 0 13930241.716 -18521364.697 -10497649.874 10 0 58540 70200.00000 0 14620465.545 -19419010.516 -7504334.508 10 0 58540 71100.00000 0 14983887.677 -20088660.934 -4364058.739 10 0 58540 72000.00000 0 15048251.202 -20478870.634 -1138305.445 10 0 58540 72900.00000 0 14852117.701 -20546896.363 2109745.096 10 0 58540 73800.00000 0 14443004.971 -20260654.621 5316485.262 10 0 58540 74700.00000 0 13875153.168 -19600238.454 8419158.036 10 0 58540 75600.00000 0 13207017.844 -18558927.165 11357114.459 10 0 58540 76500.00000 0 12498600.196 -17143645.476 14073022.879 10 0 58540 77400.00000 0 11808731.473 -15374853.148 16514003.840 10 0 58540 78300.00000 0 11192429.679 -13285871.265 18632666.888 10 0 58540 79200.00000 0 10698442.574 -10921675.809 20388028.498 10 0 58540 80100.00000 0 10367081.695 -8337212.072 21746293.652 10 0 58540 81000.00000 0 10228438.405 -5595303.336 22681487.336 10 0 58540 81900.00000 0 10301055.559 -2764243.670 23175925.960 10 0 58540 82800.00000 0 10591108.058 84822.974 23220522.363 10 0 58540 83700.00000 0 11092123.503 2880627.586 22814921.726 10 0 58540 84600.00000 0 11785251.169 5554492.156 21967468.983 10 0 58540 85500.00000 0 12640064.688 8042925.764 20695011.400 10 0 58541 0.00000 0 13615861.955 10289995.844 19022542.794 10 0 58541 900.00000 0 14663405.956 12249379.800 16982698.004 10 0 58541 1800.00000 0 15727032.356 13886016.302 14615109.311 10 0 58541 2700.00000 0 16747035.954 15177291.077 11965636.952 10 0 58541 3600.00000 0 17662236.969 16113713.309 9085488.959 10 0 58541 4500.00000 0 18412621.507 16699056.836 6030246.226 10 0 58541 5400.00000 0 18941947.983 16949963.492 2858810.208 10 0 58541 6300.00000 0 19200212.846 16895026.626 -367708.425 10 0 58541 7200.00000 0 19145874.660 16573393.602 -3587140.831 10 0 58541 8100.00000 0 18747745.241 16032945.283 -6737430.943 10 0 58541 9000.00000 0 17986469.736 15328127.327 -9757806.146 10 0 58541 9900.00000 0 16855533.784 14517522.181 -12589927.210 10 0 58541 10800.00000 0 15361754.619 13661261.262 -15178997.342 10 0 58541 11700.00000 0 13525233.515 12818383.586 -17474810.525 10 0 58541 12600.00000 0 11378768.534 12044249.723 -19432719.937 10 0 58541 13500.00000 0 8966748.285 11388118.336 -21014508.291 10 0 58541 14400.00000 0 6343568.581 10890986.576 -22189143.179 10 0 58541 15300.00000 0 3571633.667 10583785.584 -22933401.980 10 0 58541 16200.00000 0 719021.189 10486008.439 -23232352.835 10 0 58541 17100.00000 0 -2143095.416 10604830.683 -23079680.319 10 0 58541 18000.00000 0 -4943162.256 10934763.562 -22477846.933 10 0 58541 18900.00000 0 -7611986.494 11457858.160 -21438084.409 10 0 58541 19800.00000 0 -10085390.110 12144455.441 -19980211.899 10 0 58541 20700.00000 0 -12306664.316 12954453.848 -18132281.635 10 0 58541 21600.00000 0 -14228720.404 13839043.515 -15930056.292 10 0 58541 22500.00000 0 -15815844.685 14742835.343 -13416326.129 10 0 58541 23400.00000 0 -17044981.282 15606295.215 -10640077.962 10 0 58541 24300.00000 0 -17906486.547 16368379.324 -7655531.816 10 0 58541 25200.00000 0 -18404321.515 16969256.816 -4521064.693 10 0 58541 26100.00000 0 -18555673.369 17353001.269 -1298044.187 10 0 58541 27000.00000 0 -18390022.197 17470133.257 1950402.770 10 0 58541 27900.00000 0 -17947693.943 17279902.440 5160658.886 10 0 58541 28800.00000 0 -17277963.378 16752209.063 8269894.790 10 0 58541 29700.00000 0 -16436790.877 15869080.848 11217328.212 10 0 58541 30600.00000 0 -15484292.755 14625641.150 13945436.304 10 0 58541 31500.00000 0 -14482056.221 13030527.118 16401094.817 10 0 58541 32400.00000 0 -13490416.080 11105740.966 18536620.296 10 0 58541 33300.00000 0 -12565810.959 8885942.341 20310694.341 10 0 58541 34200.00000 0 -11758332.212 6417214.024 21689152.268 10 0 58541 35100.00000 0 -11109569.063 3755355.379 22645622.279 10 0 58541 36000.00000 0 -10650839.580 963777.509 23162004.927 10 0 58541 36900.00000 0 -10401879.603 -1888909.929 23228786.385 10 0 58541 37800.00000 0 -10370041.502 -4731518.520 22845182.653 10 0 58541 38700.00000 0 -10550032.653 -7492998.477 22019115.133 10 0 58541 39600.00000 0 -10924200.832 -10105141.636 20767021.117 10 0 58541 40500.00000 0 -11463351.028 -12505160.063 19113505.487 10 0 58541 41400.00000 0 -12128056.651 -14638036.390 17090842.363 10 0 58541 42300.00000 0 -12870408.276 -16458551.974 14738337.729 10 0 58541 43200.00000 0 -13636125.822 -17932912.870 12101565.885 10 0 58541 44100.00000 0 -14366945.867 -19039910.049 9231494.281 10 0 58541 45000.00000 0 -15003185.215 -19771569.270 6183512.832 10 0 58541 45900.00000 0 -15486375.108 -20133266.487 3016384.990 10 0 58541 46800.00000 0 -15761857.943 -20143306.058 -208861.107 10 0 58541 47700.00000 0 -15781239.940 -19831980.291 -3430082.147 10 0 58541 48600.00000 0 -15504599.014 -19240149.574 -6585190.032 10 0 58541 49500.00000 0 -14902356.707 -18417401.424 -9613322.969 10 0 58541 50400.00000 0 -13956736.341 -17419863.691 -12455996.828 10 0 58541 51300.00000 0 -12662745.854 -16307761.170 -15058216.595 10 0 58541 52200.00000 0 -11028642.560 -15142815.498 -17369528.077 10 0 58541 53100.00000 0 -9075857.813 -13985594.948 -19344990.613 10 0 58541 54000.00000 0 -6838381.109 -12892923.308 -20946052.600 10 0 58541 54900.00000 0 -4361625.141 -11915455.307 -22141312.843 10 0 58541 55800.00000 0 -1700814.626 -11095520.006 -22907152.199 10 0 58541 56700.00000 0 1081038.422 -10465323.308 -23228221.941 10 0 58541 57600.00000 0 3915492.720 -10045586.735 -23097777.346 10 0 58541 58500.00000 0 6731274.018 -9844682.074 -22517847.483 10 0 58541 59400.00000 0 9457003.789 -9858301.361 -21499235.045 10 0 58541 60300.00000 0 12023947.625 -10069679.343 -20061343.124 10 0 58541 61200.00000 0 14368668.415 -10450362.231 -18231829.332 10 0 58541 62100.00000 0 16435472.198 -10961492.950 -16046091.304 10 0 58541 63000.00000 0 18178542.273 -11555560.437 -13546591.469 10 0 58541 63900.00000 0 19563669.375 -12178539.705 -10782032.980 10 0 58541 64800.00000 0 20569502.607 -12772331.557 -7806402.449 10 0 58541 65700.00000 0 21188266.166 -13277396.845 -4677898.755 10 0 58541 66600.00000 0 21425909.992 -13635470.777 -1457770.556 10 0 58541 67500.00000 0 21301687.478 -13792238.629 1790912.391 10 0 58541 68400.00000 0 20847178.728 -13699855.459 5004526.973 10 0 58541 69300.00000 0 20104802.514 -13319199.253 8120175.200 10 0 58541 70200.00000 0 19125882.813 -12621758.769 11076944.978 10 0 58541 71100.00000 0 17968355.328 -11591073.830 13817125.387 10 0 58541 72000.00000 0 16694214.915 -10223666.019 16287350.075 10 0 58541 72900.00000 0 15366815.576 -8529420.448 18439644.795 10 0 58541 73800.00000 0 14048140.087 -6531403.628 20232357.978 10 0 58541 74700.00000 0 12796156.596 -4265127.100 21630956.475 10 0 58541 75600.00000 0 11662374.318 -1777290.194 22608672.407 10 0 58541 76500.00000 0 10689700.630 875942.900 23146990.700 10 0 58541 77400.00000 0 9910687.792 3631057.343 23235970.640 10 0 58541 78300.00000 0 9346239.861 6419603.436 22874398.404 10 0 58541 79200.00000 0 9004830.339 9170812.646 22069770.844 10 0 58541 80100.00000 0 8882259.226 11814305.432 20838113.929 10 0 58541 81000.00000 0 8961955.617 14282779.856 19203642.006 10 0 58541 81900.00000 0 9215809.564 16514571.860 17198266.533 10 0 58541 82800.00000 0 9605495.619 18455984.077 14860965.177 10 0 58541 83700.00000 0 10084230.765 20063290.263 12237024.081 10 0 58541 84600.00000 0 10598892.423 21304335.969 9377167.754 10 0 58541 85500.00000 0 11092408.090 22159672.493 6336592.654 99